TimePDT,TemperatureF,Dew PointF,Humidity,Sea Level PressureIn,VisibilityMPH,Wind Direction,Wind SpeedMPH,Gust SpeedMPH,PrecipitationIn,Events,Conditions,WindDirDegrees,DateUTC
12:15 AM,62.6,39.2,42,30.32,10.0,West,9.2,-,N/A,,Clear,270,2013-06-30 07:15:00
12:35 AM,62.6,37.4,39,30.32,10.0,Calm,Calm,-,N/A,,Clear,0,2013-06-30 07:35:00
12:55 AM,62.6,37.4,39,30.32,10.0,West,8.1,-,N/A,,Clear,270,2013-06-30 07:55:00
1:15 AM,62.6,37.4,39,30.31,10.0,West,9.2,-,N/A,,Clear,270,2013-06-30 08:15:00
1:35 AM,62.6,37.4,39,30.31,10.0,West,8.1,-,N/A,,Clear,280,2013-06-30 08:35:00
1:55 AM,59.0,37.4,45,30.30,10.0,West,8.1,-,N/A,,Clear,280,2013-06-30 08:55:00
2:15 AM,59.0,37.4,45,30.30,10.0,WNW,3.5,-,N/A,,Clear,300,2013-06-30 09:15:00
2:35 AM,59.0,37.4,45,30.30,10.0,Calm,Calm,-,N/A,,Clear,0,2013-06-30 09:35:00
2:55 AM,59.0,37.4,45,30.29,10.0,North,3.5,-,N/A,,Clear,10,2013-06-30 09:55:00
3:15 AM,55.4,37.4,51,30.29,10.0,North,3.5,-,N/A,,Clear,360,2013-06-30 10:15:00
3:35 AM,53.6,37.4,54,30.28,10.0,North,3.5,-,N/A,,Clear,350,2013-06-30 10:35:00
3:55 AM,53.6,37.4,54,30.28,10.0,NW,3.5,-,N/A,,Clear,310,2013-06-30 10:55:00
4:15 AM,53.6,37.4,54,30.28,10.0,North,4.6,-,N/A,,Clear,10,2013-06-30 11:15:00
4:35 AM,55.4,37.4,51,30.29,10.0,NNW,3.5,-,N/A,,Clear,340,2013-06-30 11:35:00
4:55 AM,55.4,37.4,51,30.28,10.0,Calm,Calm,-,N/A,,Clear,0,2013-06-30 11:55:00
5:15 AM,55.4,37.4,51,30.29,10.0,North,4.6,-,N/A,,Clear,350,2013-06-30 12:15:00
5:35 AM,53.6,37.4,54,30.29,10.0,Calm,Calm,-,N/A,,Clear,0,2013-06-30 12:35:00
5:55 AM,53.6,37.4,54,30.30,10.0,Calm,Calm,-,N/A,,Clear,0,2013-06-30 12:55:00
6:15 AM,51.8,37.4,58,30.30,10.0,Calm,Calm,-,N/A,,Clear,0,2013-06-30 13:15:00
6:35 AM,53.6,37.4,54,30.30,10.0,Calm,Calm,-,N/A,,Clear,0,2013-06-30 13:35:00
6:55 AM,55.4,39.2,54,30.30,10.0,Calm,Calm,-,N/A,,Clear,0,2013-06-30 13:55:00
7:15 AM,59.0,39.2,48,30.30,10.0,North,3.5,-,N/A,,Clear,350,2013-06-30 14:15:00
7:35 AM,62.6,39.2,42,30.30,10.0,Calm,Calm,-,N/A,,Clear,0,2013-06-30 14:35:00
7:55 AM,64.4,39.2,40,30.30,10.0,Calm,Calm,-,N/A,,Clear,0,2013-06-30 14:55:00
8:15 AM,68.0,39.2,35,30.30,10.0,Calm,Calm,-,N/A,,Clear,0,2013-06-30 15:15:00
8:35 AM,71.6,41.0,33,30.30,10.0,SE,5.8,-,N/A,,Clear,140,2013-06-30 15:35:00
8:55 AM,71.6,41.0,33,30.30,10.0,SE,5.8,-,N/A,,Clear,130,2013-06-30 15:55:00
9:15 AM,75.2,41.0,29,30.30,10.0,SE,3.5,-,N/A,,Clear,130,2013-06-30 16:15:00
9:35 AM,77.0,41.0,28,30.30,10.0,SE,4.6,-,N/A,,Clear,130,2013-06-30 16:35:00
9:55 AM,80.6,39.2,23,30.29,10.0,Calm,Calm,-,N/A,,Clear,0,2013-06-30 16:55:00
10:15 AM,82.4,37.4,20,30.29,10.0,NNW,3.5,-,N/A,,Clear,340,2013-06-30 17:15:00
10:35 AM,84.2,35.6,18,30.28,10.0,NE,3.5,-,N/A,,Clear,50,2013-06-30 17:35:00
10:55 AM,86.0,33.8,15,30.28,10.0,East,5.8,-,N/A,,Clear,100,2013-06-30 17:55:00
11:15 AM,86.0,32.0,14,30.28,10.0,East,9.2,-,N/A,,Clear,100,2013-06-30 18:15:00
11:35 AM,87.8,32.0,14,30.27,10.0,ESE,10.4,17.3,N/A,,Clear,110,2013-06-30 18:35:00
11:55 AM,87.8,32.0,14,30.27,10.0,SE,5.8,-,N/A,,Clear,140,2013-06-30 18:55:00
12:15 PM,89.6,32.0,13,30.27,10.0,SSE,6.9,-,N/A,,Clear,160,2013-06-30 19:15:00
12:35 PM,89.6,30.2,12,30.26,10.0,ESE,11.5,-,N/A,,Clear,110,2013-06-30 19:35:00
12:55 PM,91.4,30.2,11,30.26,10.0,Calm,Calm,-,N/A,,Clear,0,2013-06-30 19:55:00
1:15 PM,91.4,28.4,10,30.26,10.0,East,10.4,-,N/A,,Clear,100,2013-06-30 20:15:00
1:35 PM,91.4,24.8,9,30.25,10.0,SW,11.5,17.3,N/A,,Clear,220,2013-06-30 20:35:00
1:55 PM,91.4,24.8,9,30.25,10.0,SSW,17.3,24.2,N/A,,Clear,200,2013-06-30 20:55:00
2:15 PM,91.4,24.8,9,30.26,10.0,SW,13.8,26.5,N/A,,Clear,220,2013-06-30 21:15:00
2:35 PM,91.4,33.8,13,30.26,10.0,WSW,8.1,21.9,N/A,,Clear,250,2013-06-30 21:35:00
2:55 PM,91.4,33.8,13,30.26,10.0,WNW,17.3,26.5,N/A,,Clear,290,2013-06-30 21:55:00
3:15 PM,89.6,35.6,15,30.26,10.0,West,20.7,33.4,N/A,,Clear,280,2013-06-30 22:15:00
3:35 PM,89.6,35.6,15,30.25,10.0,West,24.2,34.5,N/A,,Clear,280,2013-06-30 22:35:00
3:55 PM,89.6,35.6,15,30.24,10.0,West,24.2,36.8,N/A,,Clear,280,2013-06-30 22:55:00
4:15 PM,89.6,35.6,15,30.24,10.0,West,21.9,33.4,N/A,,Clear,280,2013-06-30 23:15:00
4:35 PM,89.6,35.6,15,30.23,10.0,WNW,24.2,34.5,N/A,,Clear,290,2013-06-30 23:35:00
4:55 PM,87.8,35.6,16,30.23,10.0,West,23.0,34.5,N/A,,Clear,280,2013-06-30 23:55:00
5:15 PM,87.8,35.6,16,30.23,10.0,West,25.3,33.4,N/A,,Clear,280,2013-07-01 00:15:00
5:35 PM,87.8,39.2,18,30.23,10.0,WNW,23.0,31.1,N/A,,Clear,290,2013-07-01 00:35:00
5:55 PM,86.0,39.2,19,30.23,10.0,WNW,19.6,31.1,N/A,,Clear,290,2013-07-01 00:55:00
6:15 PM,86.0,39.2,19,30.23,10.0,West,21.9,28.8,N/A,,Clear,270,2013-07-01 01:15:00
6:35 PM,86.0,39.2,19,30.23,10.0,West,15.0,23.0,N/A,,Clear,270,2013-07-01 01:35:00
6:55 PM,84.2,37.4,19,30.23,10.0,WSW,10.4,21.9,N/A,,Clear,250,2013-07-01 01:55:00
7:15 PM,84.2,37.4,19,30.23,10.0,SW,10.4,18.4,N/A,,Clear,230,2013-07-01 02:15:00
7:35 PM,82.4,37.4,20,30.22,10.0,SSW,12.7,24.2,N/A,,Clear,200,2013-07-01 02:35:00
7:55 PM,80.6,35.6,20,30.23,10.0,SW,16.1,25.3,N/A,,Clear,220,2013-07-01 02:55:00
8:15 PM,80.6,35.6,20,30.23,10.0,SSW,15.0,26.5,N/A,,Clear,210,2013-07-01 03:15:00
8:35 PM,80.6,35.6,20,30.24,10.0,SSW,8.1,23.0,N/A,,Clear,200,2013-07-01 03:35:00
8:55 PM,77.0,37.4,24,30.25,10.0,NW,12.7,19.6,N/A,,Clear,310,2013-07-01 03:55:00
9:15 PM,75.2,39.2,27,30.26,10.0,NW,11.5,18.4,N/A,,Clear,310,2013-07-01 04:15:00
9:35 PM,75.2,37.4,25,30.26,10.0,SW,10.4,-,N/A,,Clear,220,2013-07-01 04:35:00
9:55 PM,73.4,37.4,27,30.27,10.0,West,4.6,-,N/A,,Clear,270,2013-07-01 04:55:00
10:15 PM,75.2,35.6,24,30.27,10.0,West,8.1,17.3,N/A,,Clear,270,2013-07-01 05:15:00
10:35 PM,75.2,35.6,24,30.27,10.0,West,5.8,18.4,N/A,,Clear,270,2013-07-01 05:35:00
10:55 PM,69.8,35.6,28,30.28,10.0,ESE,3.5,-,N/A,,Clear,110,2013-07-01 05:55:00
11:15 PM,68.0,37.4,33,30.29,10.0,Calm,Calm,-,N/A,,Clear,0,2013-07-01 06:15:00
11:35 PM,66.2,35.6,32,30.29,10.0,West,6.9,-,N/A,,Clear,270,2013-07-01 06:35:00
11:55 PM,64.4,35.6,34,30.29,10.0,North,5.8,-,N/A,,Clear,10,2013-07-01 06:55:00